This demonstration page uses our WeatherBlox Daily Observations layout. Learn more.

41.55636, -103.73856

Hourly Observations for August 27, 2018

Temp ( °F °C ) Dew Point ( °F °C ) Humidity (%) Winds ( mph kmh ) Pressure ( in mb ) Visibility ( mi km ) Precip ( " mm )
12:58 am 00:58 Mostly Cloudy with Nearby Thunderstorms 66 18.7 49 9.4 55 55 SW 5 7 29.68 1005 10 16.09344 0 0
1:58 am 01:58 Mostly Cloudy 67 19.2 45 7.4 47 47 NW 5 7 29.68 1005 10 16.09344 0 0
2:58 am 02:58 Mostly Cloudy 67 19.7 44 6.9 44 44 SSE 7 11 29.68 1005 10 16.09344 0 0
3:58 am 03:58 Mostly Cloudy 64 17.8 47 8.5 55 55 SSW 5 7 29.65 1004 10 16.09344 0 0
4:58 am 04:58 Mostly Cloudy 64 17.5 46 8 54 54 Calm 29.65 1004 10 16.09344 0 0
5:58 am 05:58 Partly Cloudy 61 16.2 46 8 59 59 W 5 7 29.68 1005 10 16.09344 0 0
6:58 am 06:58 Mostly Sunny 63 17.4 44 6.9 50 50 WNW 9 15 29.68 1005 10 16.09344 0 0
7:58 am 07:58 Sunny 68 19.9 43 5.9 40 40 NNW 10 17 29.68 1005 10 16.09344 0 0
8:58 am 08:58 Cloudy 68 20.1 46 7.5 44 44 NNE 8 13 29.65 1004 10 16.09344 0 0
9:58 am 09:58 Sunny 74 23.1 45 7.1 36 36 Calm 29.65 1004 10 16.09344 0 0
10:58 am 10:58 Sunny 79 26 42 5.5 27 27 Calm 29.65 1004 10 16.09344 0 0
11:58 am 11:58 Sunny 83 28.5 39 4 21 21 WSW 16 26 29.59 1002 10 16.09344 0 0
12:58 pm 12:58 Mostly Cloudy with Showers 70 20.9 58 14.4 67 67 N 14 22 29.65 1004 10 16.09344 0.02 0.508
1:58 pm 13:58 Mostly Cloudy with Light Showers 73 22.6 50 10.1 45 45 N 7 11 29.68 1005 10 16.09344 0 0
2:58 pm 14:58 Mostly Sunny 74 23.6 50 10.1 43 43 Calm 29.65 1004 10 16.09344 0.05 1.27
3:58 pm 15:58 Mostly Cloudy 77 24.9 53 11.4 43 43 Calm 29.65 1004 10 16.09344 0 0
4:58 pm 16:58 Mostly Sunny 80 26.8 43 6.2 27 27 NNW 12 19 29.65 1004 10 16.09344 0 0
5:58 pm 17:58 Mostly Sunny 77 25 43 5.9 29 29 N 14 22 29.65 1004 10 16.09344 0 0
6:58 pm 18:58 Mostly Cloudy 74 23.6 40 4.6 29 29 N 15 24 29.68 1005 10 16.09344 0 0
7:58 pm 19:58 Mostly Clear 68 19.9 40 4.4 36 36 N 12 19 29.71 1006 10 16.09344 0 0
8:58 pm 20:58 Mostly Clear 66 19 39 4.1 37 37 N 9 15 29.77 1008 9 14.484096 0 0
9:58 pm 21:58 Clear 62 16.7 44 6.9 53 53 NNE 16 26 29.8 1009 10 16.09344 0 0
10:58 pm 22:58 Clear 58 14.5 45 7.1 61 61 N 17 28 29.83 1010 10 16.09344 0 0
11:58 pm 23:58 Partly Cloudy 55 12.9 44 6.9 67 67 N 17 28 29.85 1011 10 16.09344 0 0

Powered by AerisWeather